Location: Fort Wayne
(41.1310°N, 85.1290°W)
Time: 15:26:58
(UTC-05:00)

Cosmos 1000 Rocket - Visible Passes

Search period start: 10 December 2016 00:00
Search period end: 20 December 2016 00:00
Orbit: 954 x 992 km, 82.9° (Epoch: 10 December)

Date Brightness Start Highest point End Pass type
(mag) Time Alt. Az. Time Alt. Az. Time Alt. Az.
10 Dec 7.2 05:43:50 10° NE 05:45:53 12° ENE 05:47:58 10° E visible
11 Dec 6.8 06:06:28 10° NNE 06:11:08 21° ENE 06:15:47 10° ESE visible
11 Dec 6.3 19:34:58 10° SSE 19:35:54 15° SSE 19:35:54 15° SSE visible
12 Dec 6.0 06:30:23 10° N 06:36:10 37° ENE 06:41:56 10° SE visible
12 Dec 5.8 19:59:09 10° S 20:01:41 27° S 20:01:41 27° S visible
13 Dec 5.0 06:54:45 10° N 07:01:01 65° E 07:07:17 10° SSE visible
13 Dec 6.0 18:40:57 10° SE 18:42:50 16° ESE 18:42:50 16° ESE visible
13 Dec 5.6 20:23:56 10° SSW 20:27:33 36° SW 20:27:33 36° SW visible
14 Dec 7.0 05:35:39 10° NNE 05:39:44 18° ENE 05:43:47 10° ESE visible
14 Dec 4.5 07:19:24 10° NNW 07:25:42 73° W 07:31:59 10° S visible
14 Dec 5.0 19:04:02 10° SSE 19:08:45 35° ESE 19:08:45 35° ESE visible
14 Dec 6.0 20:49:23 10° SW 20:53:28 30° W 20:53:28 30° W visible
15 Dec 6.3 05:59:19 10° NNE 06:04:49 31° ENE 06:10:19 10° SE visible
15 Dec 4.3 19:27:59 10° S 19:34:02 66° E 19:34:43 61° ENE visible
15 Dec 6.7 21:15:43 10° WSW 21:19:26 19° WNW 21:19:26 19° WNW visible
16 Dec 5.3 06:23:34 10° N 06:29:44 54° E 06:35:54 10° SSE visible
16 Dec 5.8 18:10:30 10° ESE 18:14:07 16° E 18:16:01 14° ENE visible
16 Dec 4.6 19:52:33 10° SSW 19:58:41 71° W 20:00:44 43° N visible
17 Dec 7.1 05:05:00 10° NNE 05:08:18 14° ENE 05:11:35 10° E visible
17 Dec 4.5 06:48:08 10° N 06:54:28 87° W 07:00:48 10° S visible
17 Dec 5.2 18:33:11 10° SE 18:38:23 30° E 18:42:04 17° NE visible
17 Dec 5.6 20:17:47 10° SW 20:23:30 40° WNW 20:26:47 23° NNW visible
18 Dec 6.5 05:28:19 10° NNE 05:33:28 26° ENE 05:38:35 10° SE visible
18 Dec 4.8 07:13:00 10° NNW 07:19:03 50° W 07:25:06 10° SSW visible
18 Dec 4.5 18:56:53 10° SSE 19:02:49 54° E 19:08:07 14° NNE visible
18 Dec 6.5 20:43:46 10° WSW 20:48:30 23° WNW 20:52:50 12° NNW visible
19 Dec 5.6 05:52:25 10° N 05:58:26 44° ENE 06:04:26 10° SSE visible
19 Dec 4.4 19:21:15 10° S 19:27:24 86° W 19:33:40 10° N visible
19 Dec 7.2 21:11:08 10° W 21:13:43 13° WNW 21:16:18 10° NW visible
